Satellite-Ground Cal/Val Region Overpasses Predictions

Prediction of Satellite NPP Overpassing Cal/Val Region: PacNW

Region Location: (Latitude: 10.00, Longitude: 139.50) to (Latitude: 22.70, Longitude: 165.60).

Table of predicted overpasses for the next 14.0 days since TLE Epoch: 4/3/2016
Interval Starting Time Starting Location Ending Time Ending Location
1 04/03/2016 15:12:05 ( 22.70, 157.20) 04/03/2016 15:15:41 ( 10.02, 154.19)
2 04/04/2016 02:21:11 ( 10.04, 164.72) 04/04/2016 02:24:46 ( 22.66, 161.72)
3 04/04/2016 14:53:03 ( 22.70, 161.96) 04/04/2016 14:56:39 ( 10.02, 158.94)
4 04/05/2016 03:43:39 ( 10.04, 144.10) 04/05/2016 03:47:14 ( 22.67, 141.10)
5 04/05/2016 14:35:20 ( 18.12, 165.59) 04/05/2016 14:37:38 ( 10.02, 163.70)
6 04/05/2016 16:15:32 ( 22.69, 141.33) 04/05/2016 16:17:41 ( 15.12, 139.50)
7 04/06/2016 03:24:38 ( 10.05, 148.86) 04/06/2016 03:28:13 ( 22.67, 145.86)
8 04/06/2016 15:56:30 ( 22.69, 146.09) 04/06/2016 16:00:06 ( 10.01, 143.08)
9 04/07/2016 03:05:36 ( 10.05, 153.61) 04/07/2016 03:09:11 ( 22.67, 150.61)
10 04/07/2016 15:37:29 ( 22.69, 150.84) 04/07/2016 15:41:05 ( 10.01, 147.83)
11 04/08/2016 02:46:35 ( 10.05, 158.36) 04/08/2016 02:50:10 ( 22.67, 155.37)
12 04/08/2016 15:18:28 ( 22.69, 155.60) 04/08/2016 15:22:04 ( 10.01, 152.59)
13 04/09/2016 02:27:33 ( 10.05, 163.12) 04/09/2016 02:31:08 ( 22.67, 160.12)
14 04/09/2016 14:59:26 ( 22.69, 160.35) 04/09/2016 15:03:02 ( 10.01, 157.34)
15 04/10/2016 02:11:17 ( 19.74, 165.60) 04/10/2016 02:12:07 ( 22.68, 164.87)
16 04/10/2016 03:50:02 ( 10.06, 142.50) 04/10/2016 03:53:36 ( 22.62, 139.51)
17 04/10/2016 14:40:25 ( 22.69, 165.11) 04/10/2016 14:44:01 ( 10.01, 162.09)
18 04/10/2016 16:21:55 ( 22.68, 139.73) 04/10/2016 16:22:10 ( 21.80, 139.51)
19 04/11/2016 03:30:59 ( 10.00, 147.27) 04/11/2016 03:34:35 ( 22.68, 144.25)
20 04/11/2016 16:02:53 ( 22.68, 144.49) 04/11/2016 16:06:29 ( 10.00, 141.47)
21 04/12/2016 03:11:58 ( 10.00, 152.02) 04/12/2016 03:15:34 ( 22.69, 149.01)
22 04/12/2016 15:43:52 ( 22.68, 149.24) 04/12/2016 15:47:28 ( 10.00, 146.23)
23 04/13/2016 02:52:56 ( 10.01, 156.77) 04/13/2016 02:56:32 ( 22.69, 153.76)
24 04/13/2016 15:24:50 ( 22.68, 153.99) 04/13/2016 15:28:26 ( 10.00, 150.98)
25 04/14/2016 02:33:55 ( 10.01, 161.53) 04/14/2016 02:37:31 ( 22.69, 158.51)
26 04/14/2016 15:05:49 ( 22.68, 158.75) 04/14/2016 15:09:24 ( 10.06, 155.75)
27 04/15/2016 02:15:45 ( 13.01, 165.59) 04/15/2016 02:18:30 ( 22.70, 163.27)
28 04/15/2016 03:56:24 ( 10.02, 140.91) 04/15/2016 03:58:07 ( 16.07, 139.50)
29 04/15/2016 14:46:47 ( 22.67, 163.50) 04/15/2016 14:50:22 ( 10.05, 160.50)
30 04/16/2016 03:37:22 ( 10.02, 145.66) 04/16/2016 03:40:57 ( 22.65, 142.66)
31 04/16/2016 14:30:56 ( 11.52, 165.59) 04/16/2016 14:31:21 ( 10.05, 165.26)


NCC Satellite Cal/Val Overpasses Prediction Service
